Location: Unspecified
(0.0000°N, 0.0000°E)
Time: 03:39:28
(UTC+00:00)

Vanguard 3 - Visible Passes

Search period start: 20 January 2017 00:00
Search period end: 30 January 2017 00:00
Orbit: 508 x 3265 km, 33.3° (Epoch: 18 January)

Date Brightness Start Highest point End Pass type
(mag) Time Alt. Az. Time Alt. Az. Time Alt. Az.
20 Jan 10.4 03:12:51 10° SSW 03:15:27 11° S 03:18:26 10° S visible
20 Jan 11.1 05:30:06 10° S 05:34:57 12° S 05:40:27 10° SSE visible
21 Jan 10.6 02:03:19 11° S 02:03:19 11° S 02:03:46 10° SSE visible
22 Jan 11.1 05:15:59 10° S 05:20:01 11° SSE 05:24:31 10° SSE visible
24 Jan 11.1 05:01:30 10° S 05:05:02 11° SSE 05:08:59 10° SE visible
26 Jan 11.1 04:46:31 10° S 04:49:59 11° SSE 04:53:51 10° SE visible
27 Jan 11.0 05:41:36 10° SSW 05:51:19 22° SSE 06:03:59 10° ESE visible
27 Jan 8.8 19:33:06 10° NNW 19:34:57 14° N 19:34:57 14° N visible
28 Jan 11.0 04:31:09 10° S 04:34:51 12° SSE 04:39:02 10° SE visible
28 Jan 9.3 20:30:16 10° NW 20:30:43 12° NW 20:30:43 12° NW visible
29 Jan 10.9 05:26:01 10° SSW 05:35:36 24° SE 05:48:35 10° E visible
29 Jan 7.9 19:16:34 10° NNW 19:21:12 23° NNE 19:21:52 23° NE visible
